Home   Weather   Mariehamn   Past weeks
Flag for Åland Islands

Past Weather in Mariehamn, Åland Islands — Yesterday and Last 2 Weeks

Now
43 °F

Fog.


Feels Like: 41 °F
Forecast: 58 / 40 °F
Wind: 3 mph from North

Location: Mariehamn / Aland Island

Current Time: May 25, 2020 at 9:12:33 am

Latest Report: May 25, 2020 at 8:20 am


Visibility: 0 mi

Pressure: 30.21 "Hg

Humidity: 100%

Dew Point: 43 °F

Location of MariehamnLocation

Past Weather in Mariehamn — Graph

°F

Mariehamn Temperature Yesterday

Maximum temperature yesterday: 54 °F (at 5:50 pm)
Minimum temperature yesterday: 45 °F (at 8:50 am)
Average temperature yesterday: 48 °F

High & Low Weather Summary for the Past Weeks

 TemperatureHumidityPressure
High59 °F (May 22, 12:50 pm)100% (May 10, 10:50 pm)30.27 "Hg (May 10, 10:50 pm)
Low27 °F (May 12, 5:20 am)29% (May 22, 12:20 pm)29.47 "Hg (May 13, 4:20 am)
Average43 °F72%29.84 "Hg
* Reported May 10 7:20 am — May 25 7:50 am, Mariehamn. Weather by CustomWeather, © 2020

Note: Actual official high and low records may vary slightly from our data, if they occured in-between our weather recording intervals... More about our weather records

Mariehamn Weather History for the Previous 24 Hours

Scroll right to see more
 ConditionsComfort  
Time TempWeatherWind HumidityBarometerVisibility
7:50 am
Mon, May 25
41 °FFog.3 mph100%30.21 "Hg1 mi
7:20 am41 °FFog.3 mph100%30.18 "Hg1 mi
6:50 am43 °FFog.3 mph100%30.18 "Hg0 mi
6:20 am43 °FFog.2 mph100%30.15 "Hg0 mi
5:50 am43 °FFog.2 mph100%30.15 "Hg0 mi
5:20 am41 °FFog.3 mph100%30.12 "Hg0 mi
4:50 am43 °FFog.3 mph100%30.12 "Hg1 mi
4:20 am41 °FFog.5 mph100%30.12 "Hg1 mi
3:50 am43 °FFog.5 mph93%30.09 "Hg1 mi
2:50 am43 °FFog.3 mph100%30.09 "Hg1 mi
2:20 am43 °FFog.7 mph100%30.09 "Hg1 mi
1:50 am43 °FDense fog.3 mph100%30.07 "Hg1 mi
1:20 am43 °FDense fog.2 mph100%30.07 "Hg1 mi
12:50 am43 °FFog.5 mph100%30.07 "Hg1 mi
12:20 am45 °FDense fog.5 mph100%30.07 "Hg1 mi
11:50 pm
Sun, May 24
45 °FFog.6 mph100%30.07 "Hg2 mi
11:20 pm45 °FLow clouds.5 mph100%30.04 "Hg5 mi
10:50 pm45 °FLow clouds.3 mph100%30.04 "Hg4 mi
10:20 pm45 °FPartly sunny.6 mph100%30.04 "HgN/A
9:50 pm45 °FPartly sunny.6 mph100%30.04 "HgN/A
9:20 pm46 °FPartly sunny.7 mph93%30.04 "HgN/A
8:50 pm46 °FPartly sunny.7 mph93%30.01 "HgN/A
8:20 pm46 °FPartly sunny.7 mph93%30.01 "HgN/A
7:50 pm48 °FPassing clouds.8 mph87%30.01 "HgN/A
7:20 pm52 °FSunny.9 mph77%30.01 "Hg10 mi
6:50 pm54 °FPassing clouds.7 mph77%30.01 "HgN/A
6:20 pm54 °FSunny.10 mph72%29.98 "Hg10 mi
5:50 pm54 °FSunny.9 mph72%29.98 "Hg10 mi
5:20 pm52 °FPassing clouds.6 mph82%29.98 "HgN/A
4:50 pm52 °FPassing clouds.10 mph82%29.98 "HgN/A
4:20 pm52 °FScattered clouds.8 mph82%29.98 "HgN/A
3:50 pm50 °FPartly sunny.9 mph88%29.98 "HgN/A
3:20 pm50 °FPartly sunny.10 mph88%29.98 "HgN/A
2:50 pm50 °FPartly sunny.9 mph88%29.98 "HgN/A
2:20 pm48 °FLow clouds.9 mph87%29.98 "HgN/A
1:50 pm48 °FPartly sunny.9 mph94%29.98 "HgN/A
1:20 pm48 °FLow clouds.7 mph87%29.98 "HgN/A
12:50 pm48 °FLow clouds.7 mph94%29.98 "HgN/A
12:20 pm48 °FLow clouds.7 mph94%29.95 "HgN/A
11:50 am48 °FLow clouds.6 mph94%29.95 "HgN/A
11:20 am46 °FLow clouds.5 mph100%29.95 "HgN/A
10:50 am46 °FLow clouds.5 mph100%29.95 "Hg6 mi
10:20 am46 °FLow clouds.5 mph100%29.95 "HgN/A
9:50 am46 °FLow clouds.7 mph100%29.95 "HgN/A
9:20 am46 °FLow clouds.6 mph100%29.95 "Hg4 mi
Weather by CustomWeather, © 2020

See weather overview

Advertising